Time,TemperatureF,DewpointF,PressureIn,WindDirection,WindDirectionDegrees,WindSpeedMPH,WindSpeedGustMPH,Humidity,HourlyPrecipIn,Conditions,Clouds,dailyrainin,SoftwareType,DateUTC
2013-05-12 20:34:00,48.9,30.5,30.22,NW,315,2.7,2.7,47,0.00,,-RA,0.00,VWS V13.01,2013-05-13 00:34:00,
2013-05-12 21:24:00,48.9,30.0,30.23,NW,315,2.7,2.7,47,0.00,,-RA,10.83,VWS V13.01,2013-05-13 01:24:00,
2013-05-12 21:26:00,44.2,30.0,30.24,NW,315,2.7,2.7,58,0.00,,-RA,10.83,VWS V13.01,2013-05-13 01:26:00,
2013-05-12 21:31:00,43.8,30.0,30.24,NW,315,2.7,2.7,58,0.00,,-RA,10.83,VWS V13.01,2013-05-13 01:31:00,
2013-05-12 21:36:00,43.7,30.0,30.24,NW,315,2.7,2.7,59,0.00,,CLR,10.83,VWS V13.01,2013-05-13 01:36:00,
2013-05-12 21:41:00,43.5,30.1,30.25,NW,315,2.7,2.7,59,0.00,,CLR,10.83,VWS V13.01,2013-05-13 01:41:00,
2013-05-12 21:46:00,43.3,30.0,30.25,NW,315,2.7,2.7,59,0.00,,CLR,10.83,VWS V13.01,2013-05-13 01:46:00,
2013-05-12 21:51:00,43.1,29.8,30.25,NW,315,2.7,2.7,59,0.00,,CLR,10.83,VWS V13.01,2013-05-13 01:51:00,
2013-05-12 21:56:00,42.9,29.6,30.25,NW,315,2.7,2.7,59,0.00,,CLR,0.00,VWS V13.01,2013-05-13 01:56:00,
2013-05-12 22:01:00,42.9,29.6,30.25,NW,315,2.7,2.7,60,0.00,,CLR,0.00,VWS V13.01,2013-05-13 02:01:00,
2013-05-12 22:06:00,42.9,30.0,30.25,NW,315,1.7,2.7,60,0.00,,CLR,0.00,VWS V13.01,2013-05-13 02:06:00,
2013-05-12 22:11:00,42.9,30.0,30.26,WNW,292,1.7,2.7,60,0.00,,CLR,0.00,VWS V13.01,2013-05-13 02:11:00,
2013-05-12 22:17:00,43.1,30.2,30.26,NW,315,4.6,4.6,60,0.00,,CLR,0.00,VWS V13.01,2013-05-13 02:17:00,
2013-05-12 22:22:00,43.1,30.2,30.26,NW,315,1.7,2.7,60,0.00,,CLR,0.00,VWS V13.01,2013-05-13 02:22:00,
2013-05-12 22:27:00,43.1,30.2,30.26,NW,315,0.6,2.7,60,0.00,,CLR,0.00,VWS V13.01,2013-05-13 02:27:00,
2013-05-12 22:32:00,43.1,30.2,30.26,NW,315,0.6,2.7,60,0.00,,CLR,0.00,VWS V13.01,2013-05-13 02:32:00,
2013-05-12 22:37:00,43.1,30.2,30.26,NW,315,3.1,3.1,60,0.00,,CLR,0.00,VWS V13.01,2013-05-13 02:37:00,
2013-05-12 22:42:00,43.3,30.4,30.26,NW,315,2.6,2.7,60,0.00,,CLR,0.00,VWS V13.01,2013-05-13 02:42:00,
2013-05-12 22:47:00,43.3,30.4,30.26,NW,315,2.6,2.7,60,0.00,,CLR,0.00,VWS V13.01,2013-05-13 02:47:00,
2013-05-12 22:52:00,43.1,30.2,30.27,NNW,338,2.6,2.7,60,0.00,,CLR,0.00,VWS V13.01,2013-05-13 02:52:00,
2013-05-12 22:57:00,43.1,30.6,30.27,NW,315,2.6,2.7,60,0.00,,CLR,0.00,VWS V13.01,2013-05-13 02:57:00,
2013-05-12 23:02:00,43.1,30.4,30.27,WNW,292,2.6,2.7,60,0.00,,CLR,0.00,VWS V13.01,2013-05-13 03:02:00,
2013-05-12 23:07:00,42.9,30.4,30.27,NW,315,2.6,2.7,61,0.00,,CLR,0.00,VWS V13.01,2013-05-13 03:07:00,
2013-05-12 23:12:00,42.9,30.4,30.27,NW,315,2.6,2.7,61,0.00,,SCT065,0.00,VWS V13.01,2013-05-13 03:12:00,
2013-05-12 23:17:00,42.9,30.4,30.27,NW,315,0.2,2.7,61,0.00,,SCT065,0.00,VWS V13.01,2013-05-13 03:17:00,
2013-05-12 23:22:00,42.9,30.4,30.27,NW,315,0.2,2.7,61,0.00,,SCT065,0.00,VWS V13.01,2013-05-13 03:22:00,
2013-05-12 23:27:00,42.8,30.1,30.27,WNW,292,0.2,2.7,61,0.00,,SCT065,0.00,VWS V13.01,2013-05-13 03:27:00,
2013-05-12 23:32:00,42.6,30.5,30.27,NW,315,2.2,2.7,62,0.00,,SCT065,0.00,VWS V13.01,2013-05-13 03:32:00,
2013-05-12 23:37:00,42.6,30.3,30.27,NNW,338,0.4,2.7,62,0.00,,SCT065,0.00,VWS V13.01,2013-05-13 03:37:00,
2013-05-12 23:42:00,42.6,30.3,30.27,NW,315,4.0,4.0,62,0.00,,SCT065,0.00,VWS V13.01,2013-05-13 03:42:00,
2013-05-12 23:47:00,42.4,30.3,30.27,NW,315,4.0,4.0,62,0.00,,SCT065,0.00,VWS V13.01,2013-05-13 03:47:00,
2013-05-12 23:52:00,42.4,30.3,30.27,NW,315,4.0,4.0,62,0.00,,SCT065,0.00,VWS V13.01,2013-05-13 03:52:00,
2013-05-12 23:57:00,42.4,30.3,30.27,NW,315,4.0,4.0,62,0.00,,SCT065,0.00,VWS V13.01,2013-05-13 03:57:00,